Starlink 1502

operational
NORAD ID: 45764 Int'l Des: 2020-038 Owner: SPXS Country: US Constellation: starlink
LEOCIRCULARSTARLINK_TYPE

About Starlink 1502

Description loading...

Live Position

Loading 3D Globe...

Upcoming Passes

Altitude History

Altitude vs Time

uPlot chart will show altitude changes over time

Two-Line Element Set

1 45764U 20038AL 26035.25004628 .00811453 00000-0 23784-1 0 9999
2 45764 53.0547 4.7544 0001384 80.8349 227.5420 15.32217173 5834
Epoch: Feb 4, 2026 • Age: 6 hours

Current Status

Altitude 476.9 km
Velocity 7.63 km/s
Sub-Earth Point -27.46°S, 106.02°W
Launch Date Jun 13, 2020
Age 5.6 years
Type internet

Technical Details

Classification Payload
Mass 260.00 kg
Dry Mass 248.00 kg
Total Mass 260.00 kg
Length 0.20 m
Diameter 2.80 m
Span 9.00 m
Shape Box + pan
Manufacturer SPXS
Bus Type Starlink
Phase Status In Orbit
Owner/State SPXS/US

Large Constellations

Loading constellations...